Location: Unspecified
(0.0000°N, 0.0000°E)
Time: 11:08:29
(UTC+00:00)

A-11 Canister half - Pass Details

Date: 02 August 2021
Orbit: 1515 x 1685 km, 47.2° (Epoch: 27 September)

Event Time Altitude Azimuth Distance (km) Brightness Sun altitude
Rises 12:04:38 0° 201° (SSW) 4,656 11.4 72.4°
Reaches altitude 10° 12:08:08 10° 191° (S) 3,679 10.9 72.4°
Maximum altitude 12:16:06 32° 131° (SE) 2,394 10.3 72.2°
Drops below altitude 10° 12:24:10 10° 71° (ENE) 3,747 11.2 71.8°
Sets 12:27:43 0° 62° (ENE) 4,755 11.6 71.6°
